STARLINK-1797, 46698

Orbit data source: Space-Track

STARLINK-1797, 46698 is a payload satellite owned by SpaceX/Seattle (US) in LEO that was launched on Sun, 18 Oct 2020 UTC via an FALCON 9 launch vehicle from the Air Force Eastern Test Range (AFETR). Payload-class satellites include a variety of spacecraft equipped with specific instruments for various scientific and technological missions. These include communications satellites like Starlink; space stations such as the ISS; scientific satellites like the Hubble; Earth observation satellites from companies like Planet Labs, Umbra, and HawkEye 360; GPS; miniature CubeSats for education and research; and military/defense satellites.

Loading next visibility...
Identifier
46698, 2020-073AE
Orbit
LEO
Country
Flag of USUS
Related business
Manufacturer
SpaceX/Seattle
Mission
Partially operational Commercial Communications
Bus & Motor
STARLINK, Unknown motor
Mass
260 kg wet, ~248 kg dry
Launch date (UTC)
2020-10-18 (5 years ago)
Launch vehicle
FALCON 9
Launch site
Air Force Eastern Test Range (AFETR)
Object type
Payload
Rocket body
Debris
Shape & HBR
Box + 1 Pan, 10.1 m
Radar Cross Section
13.562 m², Large (>1 m²)

Expand to show TLE details & history
Last TLE update: 6 hours ago

TLE from 6 hours ago
0 STARLINK-1797
1 46698U 20073AE  25352.24486722  .00081494  00000-0  21179-2 0  9995
2 46698  53.0507 237.3854 0011898 102.9843 257.2489 15.38188282284996
Epoch: 2025-12-18T05:52Z
TLE epoch observation values (Epoch: 2025-12-18T05:52:36.527Z)
Latitude
-0.00004°
Longitude
62.13002°
Altitude
454.16 km
Speed
7.64 km/s
True Right ascension
15h 49m 32s
True Declination
0° 00' 00"
Sunlit
Object was in daylight at epoch
Visualization orbit readout
Latitude
Unknown
Longitude
Unknown
Altitude
Unknown
Speed
Unknown
Apparent Right ascension
Unknown
Apparent Declination
Unknown
Sunlit
N/A
Visualization observer readout
Local Sidereal Time
10:59:25
Azimuth
Unknown
Elevation
Unknown
Doppler factor
Unknown
Orbital elements
Apogee altitude
459.868 km
Perigee altitude
443.616 km
Semi-major axis
6,829.879 km
Eccentricity
0.00119
Inclination
53.0507°
RAAN
237.3854°
Arg. of periapsis
102.9843°
True anomaly
257.11597°
Mean anomaly
257.2489°
Eccentric anomaly
257.18243°
Mean motion
3.84524 °/min
Orbital period
93.62 mins
BSTAR
0.0021179
Loading maneuver chart data...
Computing Atmospheric mass density...
Loading historical data...
Loading historical data...
Loading historical data...
Loading historical data...
Loading historical data...
Loading historical data...
Loading historical data...

Documentation

Showing up to 5 results
|